Cloud_Cover
100 100 100 100 28 48 0 1 0 0 0 5 83 29 89 100 82 64 46 100 95 97 84 82 7 45 98 91 100 5 0 0 0 0 0 0 0 5 5 3 32 97 47 64 5 5 5
100 100 100 100 88 10 14 1 1 2 2 0 5 5 8 25 68 80 75 96 97 76 100 99 30 6 26 97 97 5 0 0 0 0 0 0 0 0 0 0 4 55 67 13 5 5 5
100 100 100 100 100 11 3 5 10 0 1 5 5 12 46 100 100 100 100 100 100 100 100 100 89 31 100 50 100 5 0 0 0 0 0 0 0 0 0 0 1 7 6 14 5 5 5
99 100 100 100 100 99 9 14 23 1 12 22 44 88 6 67 97 100 100 100 100 100 100 100 100 90 20 30 5 2 0 0 0 0 0 0 0 0 0 0 0 4 0 0 0 1 3
100 100 100 100 77 100 43 18 12 1 5 80 5 22 5 42 10 100 100 100 100 100 100 100 100 100 98 71 44 0 0 0 0 0 0 0 0 0 0 0 0 0 0 0 0 0 0
12 64 100 100 100 100 100 9 6 0 4 5 5 5 45 70 8 61 100 100 100 100 100 100 100 100 100 100 99 1 0 0 0 0 0 0 0 0 0 0 0 0 0 0 0 0 0
52 100 100 100 100 100 74 3 3 5 5 5 18 18 8 66 100 56 100 99 71 100 100 100 100 100 100 100 100 5 0 0 0 0 0 0 0 0 0 0 0 0 0 0 0 0 0
85 91 100 100 100 100 100 56 5 5 1 5 56 100 62 68 90 86 64 100 82 100 100 88 100 97 98 97 89 5 0 0 0 0 0 0 0 0 0 0 0 0 0 0 0 0 0
1 3 98 96 100 100 100 100 69 4 2 42 6 43 100 100 92 97 100 71 70 79 100 68 91 87 98 80 100 94 9 5 4 0 0 0 0 0 0 0 0 0 0 0 0 0 0
0 0 0 2 15 100 100 100 100 8 6 4 100 100 95 100 100 100 61 100 98 52 100 100 97 81 100 100 100 100 74 39 29 0 0 0 0 0 0 0 0 0 0 0 0 0 0
0 0 0 0 0 44 100 100 100 51 4 0 5 70 100 87 77 100 98 97 90 11 48 100 100 100 99 100 92 100 100 100 95 5 0 0 0 0 0 0 0 0 0 0 0 0 0
0 0 0 0 0 0 18 37 100 30 5 1 5 45 100 93 99 100 100 100 100 58 17 100 100 100 100 100 100 100 100 100 100 16 0 0 0 0 5 5 5 0 0 0 0 0 0
4 0 0 0 0 0 1 14 43 18 5 7 5 6 90 99 95 98 100 100 99 95 51 100 100 100 100 100 100 100 100 100 95 5 0 0 0 3 15 74 6 5 4 35 3 49 2
5 3 0 0 0 0 0 5 32 48 6 22 46 16 14 12 98 41 100 100 100 100 100 100 100 100 100 100 100 100 100 100 100 79 81 39 5 26 79 95 99 7 0 5 0 1 0
5 5 0 0 0 1 0 0 4 8 5 0 4 22 83 100 63 78 95 100 100 100 100 100 100 100 99 100 100 99 100 100 97 37 5 5 5 26 64 10 5 23 12 5 0 0 0
5 5 2 0 0 0 0 0 0 0 0 4 5 0 4 6 84 100 99 31 100 100 100 100 100 100 100 100 100 100 100 100 55 12 4 1 4 5 5 22 87 86 30 5 5 0 0
4 9 5 0 1 0 0 0 4 1 0 0 2 5 5 0 4 53 99 100 100 85 100 100 100 100 100 100 100 100 99 100 65 5 1 4 2 4 5 7 5 44 43 10 5 4 2
5 19 76 4 0 0 0 0 0 0 0 0 0 0 5 5 0 0 4 44 100 100 100 98 80 86 56 100 74 81 100 99 38 0 0 0 0 0 3 3 0 0 0 2 5 5 5
5 49 52 100 5 0 0 0 0 0 0 0 0 0 0 0 5 0 0 0 5 70 97 100 100 100 100 100 43 12 46 31 5 2 4 5 4 4 5 5 5 5 5 8 11 12 57
97 58 27 45 5 5 2 0 0 0 0 0 0 5 0 0 0 0 0 1 4 18 57 26 37 76 100 100 100 100 100 100 41 11 0 0 0 0 3 3 12 8 9 6 4 5 1
100 98 40 20 5 47 5 4 0 2 2 0 0 0 0 0 0 0 0 0 0 1 38 30 74 80 44 83 100 100 100 100 100 100 100 100 100 100 100 93 82 76 88 100 96 99 53
100 99 100 100 100 95 66 5 5 2 4 0 0 0 0 0 0 0 0 0 0 0 0 0 1 5 4 81 96 90 55 50 17 62 99 100 100 100 100 100 100 100 100 100 100 100 100
100 100 98 100 100 100 100 84 5 5 5 1 7 1 0 0 0 0 0 0 0 0 0 0 0 0 0 0 2 8 8 34 35 82 97 98 100 100 99 72 100 100 97 28 17 6 6
100 100 100 81 98 100 100 100 98 5 9 5 0 0 0 3 3 0 0 0 0 0 0 0 0 0 0 0 0 0 0 0 0 0 0 2 3 10 60 33 48 73 100 99 65 32 24
100 100 100 100 100 100 100 100 98 10 5 5 5 3 1 5 5 5 4 0 4 0 4 4 0 0 0 0 0 1 0 0 1 4 8 4 4 4 3 5 1 0 12 7 5 3 6
100 100 100 100 100 100 100 100 100 100 100 7 5 5 5 5 5 5 5 5 3 1 0 0 62 98 100 100 97 38 8 0 4 9 8 6 7 5 5 33 4 4 8 28 8 5 28
100 100 100 100 100 100 100 100 100 100 100 86 49 90 16 55 6 5 5 4 5 5 5 5 0 1 4 22 95 100 100 100 100 100 100 100 100 100 100 100 8 34 11 5 14 13 5
100 100 100 100 100 100 100 100 100 100 100 100 100 60 79 63 30 8 5 5 5 5 0 3 4 4 0 5 5 5 5 10 97 66 100 72 91 100 100 98 60 20 5 5 26 54 12
100 100 100 100 100 100 100 100 100 100 100 100 100 100 100 94 78 30 30 5 5 5 5 5 5 4 7 54 98 100 97 16 5 14 98 99 100 100 100 100 100 95 98 99 72 90 100